This demonstration page uses our WeatherBlox Daily Observations layout. Learn more.

38.88101, -77.10428

Hourly Observations for June 26, 2017

Temp ( °F °C ) Dew Point ( °F °C ) Humidity (%) Winds ( mph kmh ) Pressure ( in mb ) Visibility ( mi km ) Precip ( " mm )
12:52 am 00:52 Mostly Clear 75 23.9 45 7.2 34 34 W 7 11 30.05 1018 10 16.0934 0 0
1:52 am 01:52 Partly Cloudy 72 22.2 46 7.8 40 40 WNW 7 11 30.05 1018 10 16.0934 0 0
2:52 am 02:52 Mostly Clear 73 22.8 46 7.8 38 38 WNW 8 13 30.05 1018 10 16.0934 0 0
3:52 am 03:52 Mostly Clear 72 22.2 47 8.3 41 41 W 9 15 30.05 1018 10 16.0934 0 0
4:52 am 04:52 Mostly Clear 70 21.1 48 8.9 46 46 WNW 10 17 30.06 1018 10 16.0934 0 0
5:52 am 05:52 Mostly Sunny 69 20.6 50 10 51 51 NW 8 13 30.07 1018 10 16.0934 0 0
6:52 am 06:52 Mostly Sunny 69 20.6 51 10.6 53 53 N 8 13 30.09 1019 10 16.0934 0 0
7:52 am 07:52 Mostly Sunny 73 22.8 52 11.1 48 48 N 6 9 30.09 1019 10 16.0934 0 0
8:52 am 08:52 Mostly Sunny 77 25 46 7.8 33 33 NW 13 20 30.09 1019 10 16.0934 0 0
9:52 am 09:52 Mostly Sunny 78 25.6 40 4.4 26 26 VRB 7 11 30.09 1019 10 16.0934 0 0
10:52 am 10:52 Mostly Sunny 79 26.1 41 5 26 26 W 13 20 30.1 1019 10 16.0934 0 0
11:52 am 11:52 Partly Cloudy 80 26.7 44 6.7 28 28 NW 10 17 30.09 1019 10 16.0934 0 0
12:52 pm 12:52 Partly Cloudy 81 27.2 43 6.1 26 26 undefined N/A 30.07 1018 10 16.0934 0 0
1:52 pm 13:52 Partly Cloudy 81 27.2 44 6.7 27 27 W 10 17 30.06 1018 10 16.0934 0 0
2:52 pm 14:52 Partly Cloudy 82 27.8 45 7.2 27 27 VRB 5 7 30.05 1018 10 16.0934 0 0
3:52 pm 15:52 Partly Cloudy 84 28.9 46 7.8 27 27 WSW 14 22 30.03 1017 10 16.0934 0 0
4:52 pm 16:52 Partly Cloudy 83 28.3 46 7.8 27 27 W 12 19 30.02 1017 10 16.0934 0 0
5:52 pm 17:52 Mostly Cloudy 83 28.3 49 9.4 31 31 S 10 17 29.99 1016 10 16.0934 0 0
6:52 pm 18:52 Partly Cloudy 80 26.7 49 9.4 34 34 S 9 15 29.99 1016 10 16.0934 0 0
7:52 pm 19:52 Partly Cloudy 79 26.1 55 12.8 44 44 S 13 20 29.98 1015 10 16.0934 0 0
8:52 pm 20:52 Mostly Cloudy 78 25.6 56 13.3 47 47 S 10 17 29.98 1015 10 16.0934 0 0
9:52 pm 21:52 Mostly Cloudy 76 24.4 58 14.4 54 54 S 13 20 29.99 1016 10 16.0934 0 0
10:52 pm 22:52 Mostly Cloudy 75 23.9 61 16.1 62 62 S 13 20 29.99 1016 10 16.0934 0 0
11:52 pm 23:52 Mostly Cloudy 75 23.9 63 17.2 66 66 S 9 15 29.99 1016 10 16.0934 0 0

Powered by AerisWeather